CYGNUS NG-21

Last updated on Sun Mar 30 2025 00:02:09 GMT+0000 (Coordinated Universal Time)

1 60378U 24139A 25088.70227920 -.00143412 00000+0 -23520-2 0 9995 2 60378 51.6312 340.7025 0003340 22.2587 73.6560 15.52265117 36855
UTC large
Height (km)
Speed (km/s)
/
Latitude / Longitude
Inclination (degrees)
Orbital Period (minutes)
Azimuth
Elevation
Range (km)
Doppler Factor

Next 0 passes for location: London (51.5072 / 0.1276)

Sorry there are no passes over London.
CYGNUS NG-21